DateTimeUTC,F1_A11,F1_S11,BsB_S11,BsG_S11,BsR_S11,BbsB_S11,BbsG_S11,BbsR_S11,BaB_A11,BaG_A11,BaR_A11,Tu_S11,T_S11,Uu_S11,U_S11,P_S11,T1_A11
2021-09-18T00:00:00Z,00000200,21000000,,,,,,,-000.03,0000.02,-000.13,17.9,25.2,,00.0,0656.8,31.0
2021-09-18T00:01:00Z,00000200,21000000,,,,,,,0000.11,-000.46,0000.34,17.9,25.2,,00.0,0656.9,31.0
2021-09-18T00:02:00Z,00000200,21000000,,,,,,,-000.32,0000.12,-000.48,17.9,25.3,,00.0,0656.8,31.0
2021-09-18T00:03:00Z,00000200,61000000,,,,,,,-000.31,-000.00,0000.13,17.9,25.3,,00.0,0656.8,31.0
2021-09-18T00:04:00Z,00000200,41000000,-000.39,-000.14,-000.32,0000.06,-000.12,0000.42,0000.21,-000.45,-000.34,18.1,25.1,,00.0,0657.7,31.0
2021-09-18T00:05:00Z,00000200,01000000,0000.25,-000.05,0000.19,-000.17,-000.34,0000.29,-000.07,0000.09,-000.23,18.1,25.0,,00.0,0657.8,31.0
2021-09-18T00:06:00Z,00000200,01000000,-000.34,0000.08,-000.20,0000.16,-000.11,0000.21,0000.10,0000.12,0000.34,18.0,24.9,,00.0,0657.7,31.0
2021-09-18T00:07:00Z,00000200,01000000,0000.09,0000.05,-000.07,0000.93,0000.13,0000.10,-000.19,-000.07,-000.44,17.9,24.9,,00.0,0657.7,31.0
2021-09-18T00:08:00Z,00000200,01000000,-000.29,0000.08,0000.05,-000.10,0000.44,0000.11,0000.02,-000.14,0000.30,17.9,24.8,,00.0,0657.7,30.9
2021-09-18T00:09:00Z,00000200,01000000,0000.22,0000.14,-000.18,0000.39,0000.13,0000.13,0000.02,-000.09,0000.12,17.8,24.8,,00.0,0657.7,30.9
2021-09-18T00:10:00Z,00000200,01000000,0000.04,0000.25,-000.22,0000.54,0000.21,0000.10,0000.35,0000.27,-000.07,17.9,24.8,,00.0,0657.7,30.9
2021-09-18T00:11:00Z,00000200,01000000,0000.17,0000.07,-000.13,-000.02,0000.16,0000.04,-000.30,-000.03,0000.34,17.9,24.8,,00.0,0657.7,31.0
2021-09-18T00:12:00Z,00000200,01000000,-000.76,0000.01,-000.14,0000.56,-000.04,0000.09,0000.13,0000.35,0000.02,18.0,24.8,,00.0,0657.7,31.0
2021-09-18T00:13:00Z,00000200,01000000,-000.67,-000.13,-000.05,0000.64,0000.23,0000.34,0000.09,0000.16,0000.05,18.1,24.9,,00.0,0657.7,31.0
2021-09-18T00:14:00Z,00000200,01000000,-000.06,-000.04,-000.05,0000.51,-000.26,-000.26,0000.27,-000.05,0000.23,18.2,24.9,,00.0,0657.7,31.0
2021-09-18T00:15:00Z,00000200,01000000,-000.74,0000.17,-000.06,0000.57,0000.12,0000.02,-000.16,0000.22,0000.06,18.3,25.0,,00.0,0657.7,31.0
2021-09-18T00:16:00Z,00000200,01000000,-000.25,0000.16,-000.05,0000.43,-000.06,-000.10,0000.57,0000.11,0000.23,18.4,25.0,,00.0,0657.7,31.1
2021-09-18T00:17:00Z,00000200,01000000,-000.03,-000.27,-000.14,-000.05,0000.19,0000.17,-000.52,-000.06,-000.20,18.4,25.1,,00.0,0657.7,31.0
2021-09-18T00:18:00Z,00000200,01000000,-000.84,-000.16,-000.16,0000.36,-000.01,0000.11,0000.10,0000.22,0000.00,18.5,25.1,,00.0,0657.7,31.0
2021-09-18T00:19:00Z,00000200,01000000,-000.10,-000.07,-000.06,-000.24,0000.00,-000.13,-000.26,-000.91,-000.46,18.4,25.1,,00.0,0657.7,31.0
2021-09-18T00:20:00Z,00000200,01000000,-000.25,-000.02,-000.07,0000.27,0000.27,-000.00,-000.12,0000.06,0000.02,18.3,25.1,,00.0,0657.6,31.0
2021-09-18T00:21:00Z,00000200,01000000,-000.16,0000.17,-000.00,0000.18,0000.01,-000.18,-000.11,-000.28,-000.20,18.3,25.0,,00.0,0657.7,31.0
2021-09-18T00:22:00Z,00000200,01000000,-000.72,0000.11,-000.13,0000.19,0000.25,0000.22,-000.50,-000.48,-000.65,18.2,25.0,,00.0,0657.7,31.0
2021-09-18T00:23:00Z,00000200,01000000,0000.02,0000.26,0000.23,0000.14,0000.10,0000.33,-000.36,-000.23,-000.15,18.1,24.9,,00.0,0657.7,31.0
2021-09-18T00:24:00Z,00000200,01000000,-000.01,-000.09,0000.07,-000.87,0000.01,0000.02,-000.26,0000.11,-000.24,18.1,24.9,,00.0,0657.7,31.0
2021-09-18T00:25:00Z,00000200,01000000,0000.21,0000.39,-000.07,0000.60,0000.10,0000.47,-000.51,-000.55,-000.12,18.1,24.9,,00.0,0657.7,31.0
2021-09-18T00:26:00Z,00000200,01000000,-000.34,0000.13,0000.10,-000.16,0000.08,0000.12,0000.33,0000.18,0000.07,18.2,24.9,,00.0,0657.7,31.0
2021-09-18T00:27:00Z,00000200,01000000,0000.39,0000.04,-000.24,0000.45,-000.15,-000.20,-000.16,-000.09,0000.10,18.2,25.0,,00.0,0657.7,31.0
2021-09-18T00:28:00Z,00000200,01000000,-000.05,-000.06,0000.05,0000.27,0000.10,0000.11,-000.18,-000.04,0000.25,18.3,25.0,,00.0,0657.7,31.0
2021-09-18T00:29:00Z,00000200,01000000,-000.30,0000.22,-000.12,0000.33,-000.05,-000.00,0000.35,0000.19,-000.16,18.4,25.0,,00.0,0657.8,31.1
2021-09-18T00:30:00Z,00000200,01000000,0000.22,0000.25,-000.21,0000.62,-000.20,-000.13,-000.14,0000.42,0000.08,18.5,25.1,,00.0,0657.8,31.0
2021-09-18T00:31:00Z,00000200,01000000,-000.33,0000.11,-000.38,0000.53,0000.03,0000.21,0000.08,-000.30,0000.27,18.6,25.1,,00.0,0657.8,31.1
2021-09-18T00:32:00Z,00000200,01000000,0000.51,0000.29,0000.02,0000.75,-000.27,0000.20,-000.05,-000.19,-000.64,18.6,25.2,,00.0,0657.8,31.1
2021-09-18T00:33:00Z,00000200,01000000,0000.49,0000.15,-000.23,0000.34,0000.14,-000.20,-000.02,0000.00,0000.33,18.6,25.2,,00.0,0657.8,31.1
2021-09-18T00:34:00Z,00000200,01000000,0000.39,0000.42,-000.33,0000.48,-000.03,0000.24,-000.32,-000.29,-000.05,18.6,25.2,,00.0,0657.8,31.0
2021-09-18T00:35:00Z,00000200,01000000,-000.12,0000.32,-000.12,0000.95,0000.18,0000.25,0000.29,0000.18,-000.19,18.5,25.1,,00.0,0657.8,31.0
2021-09-18T00:36:00Z,00000200,01000000,-000.44,0000.04,-000.01,0000.32,0000.17,0000.27,0000.17,-000.26,0000.03,18.4,25.1,,00.0,0657.8,31.0
2021-09-18T00:37:00Z,00000200,01000000,-000.99,0000.02,-000.13,0000.09,0000.42,0000.08,0000.07,0000.69,0000.20,18.3,25.1,,00.0,0657.8,31.0
2021-09-18T00:38:00Z,00000200,01000000,-000.34,-000.17,0000.04,0000.16,0000.10,0000.31,0000.46,-000.04,0000.50,18.2,25.0,,00.0,0657.8,31.0
2021-09-18T00:39:00Z,00000200,01000000,-000.52,0000.06,-000.18,0000.01,-000.06,0000.11,0000.39,0000.82,0000.19,18.2,25.0,,00.0,0657.8,31.0
2021-09-18T00:40:00Z,00000200,01000000,0000.10,0000.18,-000.03,-000.11,0000.16,0000.36,0000.24,0000.22,0000.04,18.2,25.0,,00.0,0657.7,31.0
2021-09-18T00:41:00Z,00000200,01000000,-001.23,0000.24,-000.19,-000.10,-000.08,0000.13,0000.17,0000.06,0000.33,18.3,25.0,,00.0,0657.7,31.0
2021-09-18T00:42:00Z,00000200,01000000,-000.45,0000.37,0000.22,0000.05,-000.08,0000.13,0000.07,0000.01,-000.24,18.4,25.0,,00.0,0657.7,31.0
2021-09-18T00:43:00Z,00000200,01000000,-001.02,-000.11,-000.23,0000.01,0000.02,0000.19,-000.37,-000.21,0000.06,18.4,25.1,,00.0,0657.7,31.1
2021-09-18T00:44:00Z,00000200,01000000,-000.16,0000.24,-000.16,0000.21,-000.04,0000.15,0000.20,0000.15,-000.16,18.5,25.1,,00.0,0657.8,31.1
2021-09-18T00:45:00Z,00000200,01000000,0000.39,-000.37,-000.15,0000.60,0000.03,-000.14,0000.12,-000.12,0000.36,18.5,25.2,,00.0,0657.8,31.0
2021-09-18T00:46:00Z,00000200,01000000,-000.44,-000.45,0000.03,0000.44,0000.37,0000.10,-000.45,-000.22,-000.21,18.5,25.1,,00.0,0657.7,31.0
2021-09-18T00:47:00Z,00000200,01000000,0000.03,0000.53,-000.12,0000.05,-000.04,-000.15,-000.28,-000.30,-000.40,18.4,25.1,,00.0,0657.7,31.0
2021-09-18T00:48:00Z,00000200,01000000,-000.71,0000.26,-000.28,0000.22,0000.06,-000.13,-000.17,0000.19,-000.09,18.3,25.1,,00.0,0657.7,31.0
2021-09-18T00:49:00Z,00000200,01000000,-000.67,0000.30,-000.36,0000.48,-000.03,0000.00,-000.18,-000.40,-000.18,18.3,25.0,,00.0,0657.7,31.0
2021-09-18T00:50:00Z,00000200,01000000,0000.40,0000.15,-000.32,0000.19,-000.08,-000.04,0000.40,0000.14,-000.15,18.2,25.0,,00.0,0657.7,31.0
2021-09-18T00:51:00Z,00000200,01000000,-000.41,0000.22,0000.17,-000.08,-000.03,0000.22,-000.19,-000.25,-000.25,18.1,24.9,,00.0,0657.6,31.0
2021-09-18T00:52:00Z,00000200,01000000,-000.21,-000.39,-000.15,-000.97,0000.08,0000.25,-000.20,-000.08,-000.05,18.0,24.9,,00.0,0657.6,30.9
2021-09-18T00:53:00Z,00000200,01000000,0000.20,-000.00,-000.08,-000.21,-000.09,0000.12,0000.33,0000.18,0000.32,17.9,24.8,,00.0,0657.6,30.9
2021-09-18T00:54:00Z,00000200,01000000,-000.80,0000.14,-000.09,0001.07,0000.16,-000.12,0000.35,0000.11,0000.03,17.9,24.8,,00.0,0657.6,30.9
2021-09-18T00:55:00Z,00000200,01000000,-000.95,0000.06,-000.24,0000.10,-000.08,0000.23,0000.25,0000.40,0000.46,17.9,24.8,,00.0,0657.6,30.9
2021-09-18T00:56:00Z,00000200,01000000,0000.10,0000.02,-000.37,0000.22,-000.08,0000.16,-000.04,0000.35,0000.36,18.0,24.8,,00.0,0657.6,31.0
2021-09-18T00:57:00Z,00000200,41000000,,,,,,,0000.61,0000.58,0000.42,18.1,24.9,,00.0,0657.5,31.0
2021-09-18T00:58:00Z,00000200,61000000,,,,,,,-000.03,-000.17,-000.05,17.8,25.1,,00.0,0656.6,31.0
2021-09-18T00:59:00Z,00000200,21000000,,,,,,,-000.14,-000.47,-000.51,17.8,25.2,,00.0,0656.6,31.0
